Data supplied by UK-AIR on 5/4/2008
All Data GMT hour ending 
Status: R =Ratified P=Provisional,P*=As supplied
,,Strath Vaich,,,,,,,,,,,,,,,,,,,,,,,
Date,time,"Ozone",status,unit
 
01-01-1998,01:00,72,R,ugm-3
01-01-1998,02:00,72,R,ugm-3
01-01-1998,03:00,72,R,ugm-3
01-01-1998,04:00,72,R,ugm-3
01-01-1998,05:00,72,R,ugm-3
01-01-1998,06:00,72,R,ugm-3
01-01-1998,07:00,70,R,ugm-3
01-01-1998,08:00,74,R,ugm-3
01-01-1998,09:00,74,R,ugm-3
01-01-1998,10:00,70,R,ugm-3
01-01-1998,11:00,70,R,ugm-3
01-01-1998,12:00,72,R,ugm-3
01-01-1998,13:00,72,R,ugm-3
01-01-1998,14:00,74,R,ugm-3
01-01-1998,15:00,72,R,ugm-3
01-01-1998,16:00,70,R,ugm-3
01-01-1998,17:00,68,R,ugm-3
01-01-1998,18:00,68,R,ugm-3
01-01-1998,19:00,66,R,ugm-3
01-01-1998,20:00,64,R,ugm-3
01-01-1998,21:00,62,R,ugm-3
01-01-1998,22:00,64,R,ugm-3
01-01-1998,23:00,84,R,ugm-3
01-01-1998,24:00,84,R,ugm-3
02-01-1998,01:00,80,R,ugm-3
02-01-1998,02:00,76,R,ugm-3
02-01-1998,03:00,72,R,ugm-3
02-01-1998,04:00,68,R,ugm-3
02-01-1998,05:00,66,R,ugm-3
02-01-1998,06:00,66,R,ugm-3
02-01-1998,07:00,66,R,ugm-3
02-01-1998,08:00,68,R,ugm-3
02-01-1998,09:00,66,R,ugm-3
02-01-1998,10:00,64,R,ugm-3
02-01-1998,11:00,58,R,ugm-3
02-01-1998,12:00,56,R,ugm-3
02-01-1998,13:00,56,R,ugm-3
02-01-1998,14:00,58,R,ugm-3
02-01-1998,15:00,68,R,ugm-3
02-01-1998,16:00,66,R,ugm-3
02-01-1998,17:00,64,R,ugm-3
02-01-1998,18:00,62,R,ugm-3
02-01-1998,19:00,76,R,ugm-3
02-01-1998,20:00,78,R,ugm-3
02-01-1998,21:00,82,R,ugm-3
02-01-1998,22:00,80,R,ugm-3
02-01-1998,23:00,74,R,ugm-3
02-01-1998,24:00,68,R,ugm-3
03-01-1998,01:00,62,R,ugm-3
03-01-1998,02:00,62,R,ugm-3
03-01-1998,03:00,68,R,ugm-3
03-01-1998,04:00,68,R,ugm-3
03-01-1998,05:00,68,R,ugm-3
03-01-1998,06:00,68,R,ugm-3
03-01-1998,07:00,72,R,ugm-3
03-01-1998,08:00,74,R,ugm-3
03-01-1998,09:00,76,R,ugm-3
03-01-1998,10:00,78,R,ugm-3
03-01-1998,11:00,76,R,ugm-3
03-01-1998,12:00,76,R,ugm-3
03-01-1998,13:00,78,R,ugm-3
03-01-1998,14:00,78,R,ugm-3
03-01-1998,15:00,80,R,ugm-3
03-01-1998,16:00,80,R,ugm-3
03-01-1998,17:00,78,R,ugm-3
03-01-1998,18:00,78,R,ugm-3
03-01-1998,19:00,82,R,ugm-3
03-01-1998,20:00,80,R,ugm-3
03-01-1998,21:00,80,R,ugm-3
03-01-1998,22:00,82,R,ugm-3
03-01-1998,23:00,80,R,ugm-3
03-01-1998,24:00,78,R,ugm-3
04-01-1998,01:00,80,R,ugm-3
04-01-1998,02:00,78,R,ugm-3
04-01-1998,03:00,80,R,ugm-3
04-01-1998,04:00,78,R,ugm-3
04-01-1998,05:00,78,R,ugm-3
04-01-1998,06:00,78,R,ugm-3
04-01-1998,07:00,76,R,ugm-3
04-01-1998,08:00,76,R,ugm-3
04-01-1998,09:00,76,R,ugm-3
04-01-1998,10:00,76,R,ugm-3
04-01-1998,11:00,76,R,ugm-3
04-01-1998,12:00,74,R,ugm-3
04-01-1998,13:00,70,R,ugm-3
04-01-1998,14:00,68,R,ugm-3
04-01-1998,15:00,70,R,ugm-3
04-01-1998,16:00,72,R,ugm-3
04-01-1998,17:00,72,R,ugm-3
04-01-1998,18:00,68,R,ugm-3
04-01-1998,19:00,60,R,ugm-3
04-01-1998,20:00,54,R,ugm-3
04-01-1998,21:00,54,R,ugm-3
04-01-1998,22:00,52,R,ugm-3
04-01-1998,23:00,58,R,ugm-3
04-01-1998,24:00,56,R,ugm-3
05-01-1998,01:00,58,R,ugm-3
05-01-1998,02:00,60,R,ugm-3
05-01-1998,03:00,58,R,ugm-3
05-01-1998,04:00,58,R,ugm-3
05-01-1998,05:00,56,R,ugm-3
05-01-1998,06:00,48,R,ugm-3
05-01-1998,07:00,50,R,ugm-3
05-01-1998,08:00,46,R,ugm-3
05-01-1998,09:00,44,R,ugm-3
05-01-1998,10:00,46,R,ugm-3
05-01-1998,11:00,44,R,ugm-3
05-01-1998,12:00,44,R,ugm-3
05-01-1998,13:00,50,R,ugm-3
05-01-1998,14:00,58,R,ugm-3
05-01-1998,15:00,56,R,ugm-3
05-01-1998,16:00,54,R,ugm-3
05-01-1998,17:00,52,R,ugm-3
05-01-1998,18:00,52,R,ugm-3
05-01-1998,19:00,46,R,ugm-3
05-01-1998,20:00,50,R,ugm-3
05-01-1998,21:00,62,R,ugm-3
05-01-1998,22:00,76,R,ugm-3
05-01-1998,23:00,78,R,ugm-3
05-01-1998,24:00,82,R,ugm-3
06-01-1998,01:00,80,R,ugm-3
06-01-1998,02:00,84,R,ugm-3
06-01-1998,03:00,78,R,ugm-3
06-01-1998,04:00,68,R,ugm-3
06-01-1998,05:00,72,R,ugm-3
06-01-1998,06:00,66,R,ugm-3
06-01-1998,07:00,68,R,ugm-3
06-01-1998,08:00,70,R,ugm-3
06-01-1998,09:00,68,R,ugm-3
06-01-1998,10:00,62,R,ugm-3
06-01-1998,11:00,64,R,ugm-3
06-01-1998,12:00,64,R,ugm-3
06-01-1998,13:00,70,R,ugm-3
06-01-1998,14:00,70,R,ugm-3
06-01-1998,15:00,72,R,ugm-3
06-01-1998,16:00,70,R,ugm-3
06-01-1998,17:00,70,R,ugm-3
06-01-1998,18:00,66,R,ugm-3
06-01-1998,19:00,64,R,ugm-3
06-01-1998,20:00,62,R,ugm-3
06-01-1998,21:00,58,R,ugm-3
06-01-1998,22:00,60,R,ugm-3
06-01-1998,23:00,54,R,ugm-3
06-01-1998,24:00,54,R,ugm-3
07-01-1998,01:00,54,R,ugm-3
07-01-1998,02:00,54,R,ugm-3
07-01-1998,03:00,54,R,ugm-3
07-01-1998,04:00,54,R,ugm-3
07-01-1998,05:00,52,R,ugm-3
07-01-1998,06:00,56,R,ugm-3
07-01-1998,07:00,56,R,ugm-3
07-01-1998,08:00,56,R,ugm-3
07-01-1998,09:00,56,R,ugm-3
07-01-1998,10:00,52,R,ugm-3
07-01-1998,11:00,54,R,ugm-3
07-01-1998,12:00,48,R,ugm-3
07-01-1998,13:00,50,R,ugm-3
07-01-1998,14:00,48,R,ugm-3
07-01-1998,15:00,52,R,ugm-3
07-01-1998,16:00,56,R,ugm-3
07-01-1998,17:00,60,R,ugm-3
07-01-1998,18:00,72,R,ugm-3
07-01-1998,19:00,76,R,ugm-3
07-01-1998,20:00,74,R,ugm-3
07-01-1998,21:00,68,R,ugm-3
07-01-1998,22:00,66,R,ugm-3
07-01-1998,23:00,66,R,ugm-3
07-01-1998,24:00,66,R,ugm-3
08-01-1998,01:00,66,R,ugm-3
08-01-1998,02:00,64,R,ugm-3
08-01-1998,03:00,76,R,ugm-3
08-01-1998,04:00,80,R,ugm-3
08-01-1998,05:00,74,R,ugm-3
08-01-1998,06:00,84,R,ugm-3
08-01-1998,07:00,78,R,ugm-3
08-01-1998,08:00,76,R,ugm-3
08-01-1998,09:00,72,R,ugm-3
08-01-1998,10:00,70,R,ugm-3
08-01-1998,11:00,68,R,ugm-3
08-01-1998,12:00,66,R,ugm-3
08-01-1998,13:00,70,R,ugm-3
08-01-1998,14:00,74,R,ugm-3
08-01-1998,15:00,72,R,ugm-3
08-01-1998,16:00,70,R,ugm-3
08-01-1998,17:00,70,R,ugm-3
08-01-1998,18:00,66,R,ugm-3
08-01-1998,19:00,66,R,ugm-3
08-01-1998,20:00,66,R,ugm-3
08-01-1998,21:00,66,R,ugm-3
08-01-1998,22:00,62,R,ugm-3
08-01-1998,23:00,66,R,ugm-3
08-01-1998,24:00,64,R,ugm-3
09-01-1998,01:00,60,R,ugm-3
09-01-1998,02:00,64,R,ugm-3
09-01-1998,03:00,62,R,ugm-3
09-01-1998,04:00,60,R,ugm-3
09-01-1998,05:00,60,R,ugm-3
09-01-1998,06:00,54,R,ugm-3
09-01-1998,07:00,54,R,ugm-3
09-01-1998,08:00,70,R,ugm-3
09-01-1998,09:00,80,R,ugm-3
09-01-1998,10:00,78,R,ugm-3
09-01-1998,11:00,76,R,ugm-3
09-01-1998,12:00,74,R,ugm-3
09-01-1998,13:00,66,R,ugm-3
09-01-1998,14:00,68,R,ugm-3
09-01-1998,15:00,72,R,ugm-3
09-01-1998,16:00,68,R,ugm-3
09-01-1998,17:00,68,R,ugm-3
09-01-1998,18:00,68,R,ugm-3
09-01-1998,19:00,74,R,ugm-3
09-01-1998,20:00,72,R,ugm-3
09-01-1998,21:00,74,R,ugm-3
09-01-1998,22:00,80,R,ugm-3
09-01-1998,23:00,82,R,ugm-3
09-01-1998,24:00,82,R,ugm-3
10-01-1998,01:00,94,R,ugm-3
10-01-1998,02:00,88,R,ugm-3
10-01-1998,03:00,94,R,ugm-3
10-01-1998,04:00,96,R,ugm-3
10-01-1998,05:00,100,R,ugm-3
10-01-1998,06:00,98,R,ugm-3
10-01-1998,07:00,94,R,ugm-3
10-01-1998,08:00,100,R,ugm-3
10-01-1998,09:00,96,R,ugm-3
10-01-1998,10:00,92,R,ugm-3
10-01-1998,11:00,94,R,ugm-3
10-01-1998,12:00,94,R,ugm-3
10-01-1998,13:00,84,R,ugm-3
10-01-1998,14:00,80,R,ugm-3
10-01-1998,15:00,76,R,ugm-3
10-01-1998,16:00,72,R,ugm-3
10-01-1998,17:00,78,R,ugm-3
10-01-1998,18:00,78,R,ugm-3
10-01-1998,19:00,76,R,ugm-3
10-01-1998,20:00,74,R,ugm-3
10-01-1998,21:00,70,R,ugm-3
10-01-1998,22:00,64,R,ugm-3
10-01-1998,23:00,60,R,ugm-3
10-01-1998,24:00,58,R,ugm-3
11-01-1998,01:00,54,R,ugm-3
11-01-1998,02:00,56,R,ugm-3
11-01-1998,03:00,56,R,ugm-3
11-01-1998,04:00,50,R,ugm-3
11-01-1998,05:00,48,R,ugm-3
11-01-1998,06:00,50,R,ugm-3
11-01-1998,07:00,54,R,ugm-3
11-01-1998,08:00,60,R,ugm-3
11-01-1998,09:00,60,R,ugm-3
11-01-1998,10:00,54,R,ugm-3
11-01-1998,11:00,54,R,ugm-3
11-01-1998,12:00,54,R,ugm-3
11-01-1998,13:00,50,R,ugm-3
11-01-1998,14:00,52,R,ugm-3
11-01-1998,15:00,52,R,ugm-3
11-01-1998,16:00,50,R,ugm-3
11-01-1998,17:00,50,R,ugm-3
11-01-1998,18:00,50,R,ugm-3
11-01-1998,19:00,66,R,ugm-3
11-01-1998,20:00,72,R,ugm-3
11-01-1998,21:00,74,R,ugm-3
11-01-1998,22:00,74,R,ugm-3
11-01-1998,23:00,74,R,ugm-3
11-01-1998,24:00,74,R,ugm-3
12-01-1998,01:00,72,R,ugm-3
12-01-1998,02:00,70,R,ugm-3
12-01-1998,03:00,68,R,ugm-3
12-01-1998,04:00,56,R,ugm-3
12-01-1998,05:00,52,R,ugm-3
12-01-1998,06:00,56,R,ugm-3
12-01-1998,07:00,60,R,ugm-3
12-01-1998,08:00,66,R,ugm-3
12-01-1998,09:00,64,R,ugm-3
12-01-1998,10:00,64,R,ugm-3
12-01-1998,11:00,64,R,ugm-3
12-01-1998,12:00,68,R,ugm-3
12-01-1998,13:00,68,R,ugm-3
12-01-1998,14:00,72,R,ugm-3
12-01-1998,15:00,72,R,ugm-3
12-01-1998,16:00,70,R,ugm-3
12-01-1998,17:00,72,R,ugm-3
12-01-1998,18:00,72,R,ugm-3
12-01-1998,19:00,66,R,ugm-3
12-01-1998,20:00,68,R,ugm-3
12-01-1998,21:00,72,R,ugm-3
12-01-1998,22:00,74,R,ugm-3
12-01-1998,23:00,78,R,ugm-3
12-01-1998,24:00,76,R,ugm-3
13-01-1998,01:00,76,R,ugm-3
13-01-1998,02:00,78,R,ugm-3
13-01-1998,03:00,78,R,ugm-3
13-01-1998,04:00,78,R,ugm-3
13-01-1998,05:00,76,R,ugm-3
13-01-1998,06:00,76,R,ugm-3
13-01-1998,07:00,76,R,ugm-3
13-01-1998,08:00,74,R,ugm-3
13-01-1998,09:00,74,R,ugm-3
13-01-1998,10:00,72,R,ugm-3
13-01-1998,11:00,70,R,ugm-3
13-01-1998,12:00,68,R,ugm-3
13-01-1998,13:00,68,R,ugm-3
13-01-1998,14:00,58,R,ugm-3
13-01-1998,15:00,54,R,ugm-3
13-01-1998,16:00,52,R,ugm-3
13-01-1998,17:00,48,R,ugm-3
13-01-1998,18:00,46,R,ugm-3
13-01-1998,19:00,46,R,ugm-3
13-01-1998,20:00,44,R,ugm-3
13-01-1998,21:00,38,R,ugm-3
13-01-1998,22:00,48,R,ugm-3
13-01-1998,23:00,52,R,ugm-3
13-01-1998,24:00,46,R,ugm-3
14-01-1998,01:00,46,R,ugm-3
14-01-1998,02:00,40,R,ugm-3
14-01-1998,03:00,40,R,ugm-3
14-01-1998,04:00,40,R,ugm-3
14-01-1998,05:00,38,R,ugm-3
14-01-1998,06:00,40,R,ugm-3
14-01-1998,07:00,40,R,ugm-3
14-01-1998,08:00,46,R,ugm-3
14-01-1998,09:00,52,R,ugm-3
14-01-1998,10:00,48,R,ugm-3
14-01-1998,11:00,48,R,ugm-3
14-01-1998,12:00,48,R,ugm-3
14-01-1998,13:00,52,R,ugm-3
14-01-1998,14:00,66,R,ugm-3
14-01-1998,15:00,66,R,ugm-3
14-01-1998,16:00,68,R,ugm-3
14-01-1998,17:00,70,R,ugm-3
14-01-1998,18:00,72,R,ugm-3
14-01-1998,19:00,74,R,ugm-3
14-01-1998,20:00,74,R,ugm-3
14-01-1998,21:00,72,R,ugm-3
14-01-1998,22:00,70,R,ugm-3
14-01-1998,23:00,70,R,ugm-3
14-01-1998,24:00,68,R,ugm-3
15-01-1998,01:00,70,R,ugm-3
15-01-1998,02:00,68,R,ugm-3
15-01-1998,03:00,68,R,ugm-3
15-01-1998,04:00,70,R,ugm-3
15-01-1998,05:00,70,R,ugm-3
15-01-1998,06:00,62,R,ugm-3
15-01-1998,07:00,54,R,ugm-3
15-01-1998,08:00,64,R,ugm-3
15-01-1998,09:00,66,R,ugm-3
15-01-1998,10:00,66,R,ugm-3
15-01-1998,11:00,66,R,ugm-3
15-01-1998,12:00,62,R,ugm-3
15-01-1998,13:00,64,R,ugm-3
15-01-1998,14:00,66,R,ugm-3
15-01-1998,15:00,66,R,ugm-3
15-01-1998,16:00,64,R,ugm-3
15-01-1998,17:00,66,R,ugm-3
15-01-1998,18:00,66,R,ugm-3
15-01-1998,19:00,74,R,ugm-3
15-01-1998,20:00,70,R,ugm-3
15-01-1998,21:00,68,R,ugm-3
15-01-1998,22:00,64,R,ugm-3
15-01-1998,23:00,62,R,ugm-3
15-01-1998,24:00,64,R,ugm-3
16-01-1998,01:00,64,R,ugm-3
16-01-1998,02:00,66,R,ugm-3
16-01-1998,03:00,66,R,ugm-3
16-01-1998,04:00,68,R,ugm-3
16-01-1998,05:00,66,R,ugm-3
16-01-1998,06:00,68,R,ugm-3
16-01-1998,07:00,70,R,ugm-3
16-01-1998,08:00,72,R,ugm-3
16-01-1998,09:00,74,R,ugm-3
16-01-1998,10:00,74,R,ugm-3
16-01-1998,11:00,74,R,ugm-3
16-01-1998,12:00,72,R,ugm-3
16-01-1998,13:00,72,R,ugm-3
16-01-1998,14:00,74,R,ugm-3
16-01-1998,15:00,76,R,ugm-3
16-01-1998,16:00,74,R,ugm-3
16-01-1998,17:00,72,R,ugm-3
16-01-1998,18:00,74,R,ugm-3
16-01-1998,19:00,74,R,ugm-3
16-01-1998,20:00,72,R,ugm-3
16-01-1998,21:00,72,R,ugm-3
16-01-1998,22:00,68,R,ugm-3
16-01-1998,23:00,66,R,ugm-3
16-01-1998,24:00,70,R,ugm-3
17-01-1998,01:00,68,R,ugm-3
17-01-1998,02:00,62,R,ugm-3
17-01-1998,03:00,54,R,ugm-3
17-01-1998,04:00,54,R,ugm-3
17-01-1998,05:00,50,R,ugm-3
17-01-1998,06:00,54,R,ugm-3
17-01-1998,07:00,56,R,ugm-3
17-01-1998,08:00,52,R,ugm-3
17-01-1998,09:00,60,R,ugm-3
17-01-1998,10:00,66,R,ugm-3
17-01-1998,11:00,68,R,ugm-3
17-01-1998,12:00,70,R,ugm-3
17-01-1998,13:00,72,R,ugm-3
17-01-1998,14:00,72,R,ugm-3
17-01-1998,15:00,72,R,ugm-3
17-01-1998,16:00,70,R,ugm-3
17-01-1998,17:00,68,R,ugm-3
17-01-1998,18:00,68,R,ugm-3
17-01-1998,19:00,72,R,ugm-3
17-01-1998,20:00,72,R,ugm-3
17-01-1998,21:00,72,R,ugm-3
17-01-1998,22:00,72,R,ugm-3
17-01-1998,23:00,72,R,ugm-3
17-01-1998,24:00,70,R,ugm-3
18-01-1998,01:00,72,R,ugm-3
18-01-1998,02:00,72,R,ugm-3
18-01-1998,03:00,70,R,ugm-3
18-01-1998,04:00,68,R,ugm-3
18-01-1998,05:00,66,R,ugm-3
18-01-1998,06:00,68,R,ugm-3
18-01-1998,07:00,66,R,ugm-3
18-01-1998,08:00,70,R,ugm-3
18-01-1998,09:00,70,R,ugm-3
18-01-1998,10:00,70,R,ugm-3
18-01-1998,11:00,70,R,ugm-3
18-01-1998,12:00,72,R,ugm-3
18-01-1998,13:00,74,R,ugm-3
18-01-1998,14:00,74,R,ugm-3
18-01-1998,15:00,76,R,ugm-3
18-01-1998,16:00,76,R,ugm-3
18-01-1998,17:00,76,R,ugm-3
18-01-1998,18:00,78,R,ugm-3
18-01-1998,19:00,80,R,ugm-3
18-01-1998,20:00,,,
18-01-1998,21:00,76,R,ugm-3
18-01-1998,22:00,78,R,ugm-3
18-01-1998,23:00,70,R,ugm-3
18-01-1998,24:00,74,R,ugm-3
19-01-1998,01:00,76,R,ugm-3
19-01-1998,02:00,74,R,ugm-3
19-01-1998,03:00,76,R,ugm-3
19-01-1998,04:00,76,R,ugm-3
19-01-1998,05:00,82,R,ugm-3
19-01-1998,06:00,82,R,ugm-3
19-01-1998,07:00,80,R,ugm-3
19-01-1998,08:00,82,R,ugm-3
19-01-1998,09:00,82,R,ugm-3
19-01-1998,10:00,80,R,ugm-3
19-01-1998,11:00,78,R,ugm-3
19-01-1998,12:00,80,R,ugm-3
19-01-1998,13:00,82,R,ugm-3
19-01-1998,14:00,84,R,ugm-3
19-01-1998,15:00,84,R,ugm-3
19-01-1998,16:00,84,R,ugm-3
19-01-1998,17:00,82,R,ugm-3
19-01-1998,18:00,82,R,ugm-3
19-01-1998,19:00,82,R,ugm-3
19-01-1998,20:00,82,R,ugm-3
19-01-1998,21:00,82,R,ugm-3
19-01-1998,22:00,80,R,ugm-3
19-01-1998,23:00,80,R,ugm-3
19-01-1998,24:00,,,
20-01-1998,01:00,80,R,ugm-3
20-01-1998,02:00,74,R,ugm-3
20-01-1998,03:00,78,R,ugm-3
20-01-1998,04:00,74,R,ugm-3
20-01-1998,05:00,72,R,ugm-3
20-01-1998,06:00,72,R,ugm-3
20-01-1998,07:00,72,R,ugm-3
20-01-1998,08:00,74,R,ugm-3
20-01-1998,09:00,72,R,ugm-3
20-01-1998,10:00,76,R,ugm-3
20-01-1998,11:00,72,R,ugm-3
20-01-1998,12:00,74,R,ugm-3
20-01-1998,13:00,76,R,ugm-3
20-01-1998,14:00,76,R,ugm-3
20-01-1998,15:00,74,R,ugm-3
20-01-1998,16:00,76,R,ugm-3
20-01-1998,17:00,72,R,ugm-3
20-01-1998,18:00,72,R,ugm-3
20-01-1998,19:00,72,R,ugm-3
20-01-1998,20:00,74,R,ugm-3
20-01-1998,21:00,74,R,ugm-3
20-01-1998,22:00,74,R,ugm-3
20-01-1998,23:00,72,R,ugm-3
20-01-1998,24:00,,,
21-01-1998,01:00,72,R,ugm-3
21-01-1998,02:00,72,R,ugm-3
21-01-1998,03:00,70,R,ugm-3
21-01-1998,04:00,68,R,ugm-3
21-01-1998,05:00,66,R,ugm-3
21-01-1998,06:00,66,R,ugm-3
21-01-1998,07:00,64,R,ugm-3
21-01-1998,08:00,62,R,ugm-3
21-01-1998,09:00,60,R,ugm-3
21-01-1998,10:00,60,R,ugm-3
21-01-1998,11:00,56,R,ugm-3
21-01-1998,12:00,56,R,ugm-3
21-01-1998,13:00,54,R,ugm-3
21-01-1998,14:00,54,R,ugm-3
21-01-1998,15:00,60,R,ugm-3
21-01-1998,16:00,66,R,ugm-3
21-01-1998,17:00,66,R,ugm-3
21-01-1998,18:00,66,R,ugm-3
21-01-1998,19:00,64,R,ugm-3
21-01-1998,20:00,64,R,ugm-3
21-01-1998,21:00,72,R,ugm-3
21-01-1998,22:00,74,R,ugm-3
21-01-1998,23:00,70,R,ugm-3
21-01-1998,24:00,,,
22-01-1998,01:00,68,R,ugm-3
22-01-1998,02:00,68,R,ugm-3
22-01-1998,03:00,66,R,ugm-3
22-01-1998,04:00,64,R,ugm-3
22-01-1998,05:00,64,R,ugm-3
22-01-1998,06:00,62,R,ugm-3
22-01-1998,07:00,62,R,ugm-3
22-01-1998,08:00,62,R,ugm-3
22-01-1998,09:00,62,R,ugm-3
22-01-1998,10:00,64,R,ugm-3
22-01-1998,11:00,66,R,ugm-3
22-01-1998,12:00,62,R,ugm-3
22-01-1998,13:00,60,R,ugm-3
22-01-1998,14:00,54,R,ugm-3
22-01-1998,15:00,50,R,ugm-3
22-01-1998,16:00,50,R,ugm-3
22-01-1998,17:00,46,R,ugm-3
22-01-1998,18:00,44,R,ugm-3
22-01-1998,19:00,46,R,ugm-3
22-01-1998,20:00,44,R,ugm-3
22-01-1998,21:00,44,R,ugm-3
22-01-1998,22:00,48,R,ugm-3
22-01-1998,23:00,50,R,ugm-3
22-01-1998,24:00,,,
23-01-1998,01:00,44,R,ugm-3
23-01-1998,02:00,42,R,ugm-3
23-01-1998,03:00,38,R,ugm-3
23-01-1998,04:00,66,R,ugm-3
23-01-1998,05:00,70,R,ugm-3
23-01-1998,06:00,68,R,ugm-3
23-01-1998,07:00,68,R,ugm-3
23-01-1998,08:00,70,R,ugm-3
23-01-1998,09:00,68,R,ugm-3
23-01-1998,10:00,70,R,ugm-3
23-01-1998,11:00,70,R,ugm-3
23-01-1998,12:00,70,R,ugm-3
23-01-1998,13:00,72,R,ugm-3
23-01-1998,14:00,76,R,ugm-3
23-01-1998,15:00,76,R,ugm-3
23-01-1998,16:00,72,R,ugm-3
23-01-1998,17:00,72,R,ugm-3
23-01-1998,18:00,72,R,ugm-3
23-01-1998,19:00,70,R,ugm-3
23-01-1998,20:00,70,R,ugm-3
23-01-1998,21:00,72,R,ugm-3
23-01-1998,22:00,70,R,ugm-3
23-01-1998,23:00,70,R,ugm-3
23-01-1998,24:00,,,
24-01-1998,01:00,68,R,ugm-3
24-01-1998,02:00,66,R,ugm-3
24-01-1998,03:00,68,R,ugm-3
24-01-1998,04:00,68,R,ugm-3
24-01-1998,05:00,64,R,ugm-3
24-01-1998,06:00,66,R,ugm-3
24-01-1998,07:00,64,R,ugm-3
24-01-1998,08:00,62,R,ugm-3
24-01-1998,09:00,64,R,ugm-3
24-01-1998,10:00,64,R,ugm-3
24-01-1998,11:00,64,R,ugm-3
24-01-1998,12:00,66,R,ugm-3
24-01-1998,13:00,70,R,ugm-3
24-01-1998,14:00,70,R,ugm-3
24-01-1998,15:00,68,R,ugm-3
24-01-1998,16:00,70,R,ugm-3
24-01-1998,17:00,68,R,ugm-3
24-01-1998,18:00,66,R,ugm-3
24-01-1998,19:00,64,R,ugm-3
24-01-1998,20:00,60,R,ugm-3
24-01-1998,21:00,56,R,ugm-3
24-01-1998,22:00,52,R,ugm-3
24-01-1998,23:00,54,R,ugm-3
24-01-1998,24:00,,,
25-01-1998,01:00,56,R,ugm-3
25-01-1998,02:00,58,R,ugm-3
25-01-1998,03:00,54,R,ugm-3
25-01-1998,04:00,54,R,ugm-3
25-01-1998,05:00,48,R,ugm-3
25-01-1998,06:00,50,R,ugm-3
25-01-1998,07:00,46,R,ugm-3
25-01-1998,08:00,44,R,ugm-3
25-01-1998,09:00,44,R,ugm-3
25-01-1998,10:00,44,R,ugm-3
25-01-1998,11:00,44,R,ugm-3
25-01-1998,12:00,50,R,ugm-3
25-01-1998,13:00,54,R,ugm-3
25-01-1998,14:00,62,R,ugm-3
25-01-1998,15:00,60,R,ugm-3
25-01-1998,16:00,54,R,ugm-3
25-01-1998,17:00,52,R,ugm-3
25-01-1998,18:00,48,R,ugm-3
25-01-1998,19:00,46,R,ugm-3
25-01-1998,20:00,48,R,ugm-3
25-01-1998,21:00,44,R,ugm-3
25-01-1998,22:00,46,R,ugm-3
25-01-1998,23:00,44,R,ugm-3
25-01-1998,24:00,,,
26-01-1998,01:00,46,R,ugm-3
26-01-1998,02:00,44,R,ugm-3
26-01-1998,03:00,46,R,ugm-3
26-01-1998,04:00,46,R,ugm-3
26-01-1998,05:00,42,R,ugm-3
26-01-1998,06:00,42,R,ugm-3
26-01-1998,07:00,42,R,ugm-3
26-01-1998,08:00,42,R,ugm-3
26-01-1998,09:00,42,R,ugm-3
26-01-1998,10:00,42,R,ugm-3
26-01-1998,11:00,42,R,ugm-3
26-01-1998,12:00,48,R,ugm-3
26-01-1998,13:00,52,R,ugm-3
26-01-1998,14:00,54,R,ugm-3
26-01-1998,15:00,52,R,ugm-3
26-01-1998,16:00,50,R,ugm-3
26-01-1998,17:00,52,R,ugm-3
26-01-1998,18:00,52,R,ugm-3
26-01-1998,19:00,50,R,ugm-3
26-01-1998,20:00,48,R,ugm-3
26-01-1998,21:00,50,R,ugm-3
26-01-1998,22:00,48,R,ugm-3
26-01-1998,23:00,50,R,ugm-3
26-01-1998,24:00,,,
27-01-1998,01:00,58,R,ugm-3
27-01-1998,02:00,70,R,ugm-3
27-01-1998,03:00,70,R,ugm-3
27-01-1998,04:00,70,R,ugm-3
27-01-1998,05:00,70,R,ugm-3
27-01-1998,06:00,72,R,ugm-3
27-01-1998,07:00,74,R,ugm-3
27-01-1998,08:00,72,R,ugm-3
27-01-1998,09:00,70,R,ugm-3
27-01-1998,10:00,70,R,ugm-3
27-01-1998,11:00,58,R,ugm-3
27-01-1998,12:00,,,
27-01-1998,13:00,72,R,ugm-3
27-01-1998,14:00,74,R,ugm-3
27-01-1998,15:00,76,R,ugm-3
27-01-1998,16:00,72,R,ugm-3
27-01-1998,17:00,72,R,ugm-3
27-01-1998,18:00,74,R,ugm-3
27-01-1998,19:00,74,R,ugm-3
27-01-1998,20:00,72,R,ugm-3
27-01-1998,21:00,76,R,ugm-3
27-01-1998,22:00,74,R,ugm-3
27-01-1998,23:00,76,R,ugm-3
27-01-1998,24:00,,,
28-01-1998,01:00,74,R,ugm-3
28-01-1998,02:00,66,R,ugm-3
28-01-1998,03:00,66,R,ugm-3
28-01-1998,04:00,66,R,ugm-3
28-01-1998,05:00,66,R,ugm-3
28-01-1998,06:00,64,R,ugm-3
28-01-1998,07:00,62,R,ugm-3
28-01-1998,08:00,58,R,ugm-3
28-01-1998,09:00,58,R,ugm-3
28-01-1998,10:00,58,R,ugm-3
28-01-1998,11:00,,,
28-01-1998,12:00,70,R,ugm-3
28-01-1998,13:00,70,R,ugm-3
28-01-1998,14:00,74,R,ugm-3
28-01-1998,15:00,74,R,ugm-3
28-01-1998,16:00,72,R,ugm-3
28-01-1998,17:00,68,R,ugm-3
28-01-1998,18:00,62,R,ugm-3
28-01-1998,19:00,56,R,ugm-3
28-01-1998,20:00,56,R,ugm-3
28-01-1998,21:00,50,R,ugm-3
28-01-1998,22:00,50,R,ugm-3
28-01-1998,23:00,48,R,ugm-3
28-01-1998,24:00,,,
29-01-1998,01:00,44,R,ugm-3
29-01-1998,02:00,50,R,ugm-3
29-01-1998,03:00,44,R,ugm-3
29-01-1998,04:00,42,R,ugm-3
29-01-1998,05:00,42,R,ugm-3
29-01-1998,06:00,36,R,ugm-3
29-01-1998,07:00,48,R,ugm-3
29-01-1998,08:00,66,R,ugm-3
29-01-1998,09:00,66,R,ugm-3
29-01-1998,10:00,56,R,ugm-3
29-01-1998,11:00,64,R,ugm-3
29-01-1998,12:00,,,
29-01-1998,13:00,,,
29-01-1998,14:00,,,
29-01-1998,15:00,,,
29-01-1998,16:00,,,
29-01-1998,17:00,,,
29-01-1998,18:00,,,
29-01-1998,19:00,,,
29-01-1998,20:00,,,
29-01-1998,21:00,,,
29-01-1998,22:00,,,
29-01-1998,23:00,,,
29-01-1998,24:00,,,
30-01-1998,01:00,,,
30-01-1998,02:00,,,
30-01-1998,03:00,,,
30-01-1998,04:00,,,
30-01-1998,05:00,,,
30-01-1998,06:00,,,
30-01-1998,07:00,,,
30-01-1998,08:00,,,
30-01-1998,09:00,,,
30-01-1998,10:00,,,
30-01-1998,11:00,,,
30-01-1998,12:00,,,
30-01-1998,13:00,,,
30-01-1998,14:00,,,
30-01-1998,15:00,,,
30-01-1998,16:00,,,
30-01-1998,17:00,,,
30-01-1998,18:00,,,
30-01-1998,19:00,,,
30-01-1998,20:00,,,
30-01-1998,21:00,,,
30-01-1998,22:00,,,
30-01-1998,23:00,,,
30-01-1998,24:00,,,
31-01-1998,01:00,,,
31-01-1998,02:00,,,
31-01-1998,03:00,,,
31-01-1998,04:00,,,
31-01-1998,05:00,,,
31-01-1998,06:00,,,
31-01-1998,07:00,,,
31-01-1998,08:00,,,
31-01-1998,09:00,,,
31-01-1998,10:00,,,
31-01-1998,11:00,,,
31-01-1998,12:00,,,
31-01-1998,13:00,,,
31-01-1998,14:00,,,
31-01-1998,15:00,,,
31-01-1998,16:00,,,
31-01-1998,17:00,,,
31-01-1998,18:00,,,
31-01-1998,19:00,,,
31-01-1998,20:00,,,
31-01-1998,21:00,,,
31-01-1998,22:00,,,
31-01-1998,23:00,,,
31-01-1998,24:00,,,
01-02-1998,01:00,52,R,ugm-3
01-02-1998,02:00,50,R,ugm-3
01-02-1998,03:00,48,R,ugm-3
01-02-1998,04:00,54,R,ugm-3
01-02-1998,05:00,54,R,ugm-3
01-02-1998,06:00,62,R,ugm-3
01-02-1998,07:00,58,R,ugm-3
01-02-1998,08:00,58,R,ugm-3
01-02-1998,09:00,66,R,ugm-3
01-02-1998,10:00,66,R,ugm-3
01-02-1998,11:00,68,R,ugm-3
01-02-1998,12:00,78,R,ugm-3
01-02-1998,13:00,78,R,ugm-3
01-02-1998,14:00,80,R,ugm-3
01-02-1998,15:00,80,R,ugm-3
01-02-1998,16:00,80,R,ugm-3
01-02-1998,17:00,80,R,ugm-3
01-02-1998,18:00,76,R,ugm-3
01-02-1998,19:00,80,R,ugm-3
01-02-1998,20:00,78,R,ugm-3
01-02-1998,21:00,76,R,ugm-3
01-02-1998,22:00,74,R,ugm-3
01-02-1998,23:00,76,R,ugm-3
01-02-1998,24:00,,,
02-02-1998,01:00,80,R,ugm-3
02-02-1998,02:00,78,R,ugm-3
02-02-1998,03:00,74,R,ugm-3
02-02-1998,04:00,70,R,ugm-3
02-02-1998,05:00,72,R,ugm-3
02-02-1998,06:00,72,R,ugm-3
02-02-1998,07:00,74,R,ugm-3
02-02-1998,08:00,74,R,ugm-3
02-02-1998,09:00,72,R,ugm-3
02-02-1998,10:00,74,R,ugm-3
02-02-1998,11:00,74,R,ugm-3
02-02-1998,12:00,74,R,ugm-3
02-02-1998,13:00,76,R,ugm-3
02-02-1998,14:00,78,R,ugm-3
02-02-1998,15:00,80,R,ugm-3
02-02-1998,16:00,86,R,ugm-3
02-02-1998,17:00,84,R,ugm-3
02-02-1998,18:00,84,R,ugm-3
02-02-1998,19:00,82,R,ugm-3
02-02-1998,20:00,82,R,ugm-3
02-02-1998,21:00,80,R,ugm-3
02-02-1998,22:00,78,R,ugm-3
02-02-1998,23:00,78,R,ugm-3
02-02-1998,24:00,,,
03-02-1998,01:00,74,R,ugm-3
03-02-1998,02:00,74,R,ugm-3
03-02-1998,03:00,76,R,ugm-3
03-02-1998,04:00,74,R,ugm-3
03-02-1998,05:00,72,R,ugm-3
03-02-1998,06:00,76,R,ugm-3
03-02-1998,07:00,82,R,ugm-3
03-02-1998,08:00,82,R,ugm-3
03-02-1998,09:00,82,R,ugm-3
03-02-1998,10:00,82,R,ugm-3
03-02-1998,11:00,80,R,ugm-3
03-02-1998,12:00,78,R,ugm-3
03-02-1998,13:00,82,R,ugm-3
03-02-1998,14:00,82,R,ugm-3
03-02-1998,15:00,84,R,ugm-3
03-02-1998,16:00,84,R,ugm-3
03-02-1998,17:00,,,
03-02-1998,18:00,84,R,ugm-3
03-02-1998,19:00,84,R,ugm-3
03-02-1998,20:00,86,R,ugm-3
03-02-1998,21:00,86,R,ugm-3
03-02-1998,22:00,84,R,ugm-3
03-02-1998,23:00,82,R,ugm-3
03-02-1998,24:00,78,R,ugm-3
04-02-1998,01:00,78,R,ugm-3
04-02-1998,02:00,80,R,ugm-3
04-02-1998,03:00,80,R,ugm-3
04-02-1998,04:00,80,R,ugm-3
04-02-1998,05:00,80,R,ugm-3
04-02-1998,06:00,80,R,ugm-3
04-02-1998,07:00,80,R,ugm-3
04-02-1998,08:00,80,R,ugm-3
04-02-1998,09:00,78,R,ugm-3
04-02-1998,10:00,78,R,ugm-3
04-02-1998,11:00,76,R,ugm-3
04-02-1998,12:00,76,R,ugm-3
04-02-1998,13:00,74,R,ugm-3
04-02-1998,14:00,68,R,ugm-3
04-02-1998,15:00,62,R,ugm-3
04-02-1998,16:00,66,R,ugm-3
04-02-1998,17:00,68,R,ugm-3
04-02-1998,18:00,72,R,ugm-3
04-02-1998,19:00,72,R,ugm-3
04-02-1998,20:00,70,R,ugm-3
04-02-1998,21:00,70,R,ugm-3
04-02-1998,22:00,70,R,ugm-3
04-02-1998,23:00,68,R,ugm-3
04-02-1998,24:00,70,R,ugm-3
05-02-1998,01:00,72,R,ugm-3
05-02-1998,02:00,74,R,ugm-3
05-02-1998,03:00,88,R,ugm-3
05-02-1998,04:00,90,R,ugm-3
05-02-1998,05:00,92,R,ugm-3
05-02-1998,06:00,90,R,ugm-3
05-02-1998,07:00,88,R,ugm-3
05-02-1998,08:00,90,R,ugm-3
05-02-1998,09:00,86,R,ugm-3
05-02-1998,10:00,86,R,ugm-3
05-02-1998,11:00,90,R,ugm-3
05-02-1998,12:00,90,R,ugm-3
05-02-1998,13:00,88,R,ugm-3
05-02-1998,14:00,88,R,ugm-3
05-02-1998,15:00,86,R,ugm-3
05-02-1998,16:00,84,R,ugm-3
05-02-1998,17:00,84,R,ugm-3
05-02-1998,18:00,86,R,ugm-3
05-02-1998,19:00,86,R,ugm-3
05-02-1998,20:00,86,R,ugm-3
05-02-1998,21:00,88,R,ugm-3
05-02-1998,22:00,90,R,ugm-3
05-02-1998,23:00,88,R,ugm-3
05-02-1998,24:00,86,R,ugm-3
06-02-1998,01:00,84,R,ugm-3
06-02-1998,02:00,88,R,ugm-3
06-02-1998,03:00,86,R,ugm-3
06-02-1998,04:00,88,R,ugm-3
06-02-1998,05:00,86,R,ugm-3
06-02-1998,06:00,86,R,ugm-3
06-02-1998,07:00,86,R,ugm-3
06-02-1998,08:00,84,R,ugm-3